Flag for Ukraine Weather past 2 weeks in L'viv, Ukraine

Now
32 °F

Overcast.


Feels Like: 25 °F
Forecast: 30 / 37 °F
Wind: 8 mph from South

Location: L'Viv Airport

Current Time: Jan 29, 2015 at 2:50:32 AM

Latest Report: Jan 29, 2015 at 2:00 AM


Visibility: N/A

Pressure: 29.68 "Hg

Humidity: 80%

Dew point: 27 °F

Location of L'vivLocation

Historic Weather in L'viv — Graph

°F

L'viv temperature yesterday

Maximum temperature yesterday: 36 °F (at 12:30 PM)
Minimum temperature yesterday: 28 °F (at 7:30 AM)
Average temperature yesterday: 33 °F

Past Weeks' High & Low Weather Summary

 TemperatureHumidityPressure
High50 °F (Jan 14, 1:30 PM)100% (Jan 15, 5:30 AM)30.18 "Hg (Jan 15, 5:30 AM)
Low27 °F (Jan 15, 9:00 PM)37% (Jan 14, 1:30 PM)29.68 "Hg (Jan 29, 1:30 AM)
Average34 °F92%29.99 "Hg
* Reported Jan 14 2:00 AM — Jan 29 2:00 AM, L'viv, Weather by CustomWeather, © 2014

Note: Actual official high and low records may vary slightly from our data, if they occured in-between our weather recording intervals... More about our weather records

Advertising

L'viv weather history for previous 24 hours

 ConditionsComfort  
Time TempWeatherWind HumidityBarometerVisibility
2:00 AM
Jan 29
32 °FOvercast.8 mph80%29.68 "HgN/A
1:30 AM34 °FOvercast.8 mph75%29.68 "HgN/A
1:00 AM32 °FOvercast.8 mph87%29.71 "HgN/A
12:30 AM32 °FOvercast.8 mph87%29.74 "HgN/A
12:00 AM32 °FOvercast.6 mph93%29.77 "HgN/A
11:30 PM
Jan 28
32 °FOvercast.6 mph93%29.77 "HgN/A
11:00 PM32 °FOvercast.6 mph87%29.80 "HgN/A
10:30 PM32 °FOvercast.6 mph93%29.80 "HgN/A
10:00 PM32 °FOvercast.3 mph87%29.80 "HgN/A
9:30 PM32 °FOvercast.3 mph87%29.80 "HgN/A
9:00 PM32 °FOvercast.3 mph87%29.83 "HgN/A
8:30 PM32 °FOvercast.3 mph93%29.83 "HgN/A
8:00 PM34 °FOvercast.3 mph87%29.83 "HgN/A
7:30 PM34 °FOvercast.6 mph87%29.83 "HgN/A
7:00 PM32 °FOvercast.6 mph93%29.86 "HgN/A
6:30 PM34 °FClear.3 mph87%29.86 "Hg10 mi
6:00 PM34 °FOvercast.6 mph87%29.86 "HgN/A
5:30 PM34 °FOvercast.3 mph87%29.86 "HgN/A
5:00 PM34 °FOvercast.6 mph87%29.86 "HgN/A
4:30 PM34 °FOvercast.6 mph87%29.86 "HgN/A
4:00 PM34 °FPartly sunny.8 mph87%29.86 "HgN/A
3:30 PM36 °FPartly sunny.8 mph81%29.89 "HgN/A
3:00 PM36 °FPartly sunny.8 mph81%29.86 "HgN/A
2:30 PM36 °FPartly sunny.8 mph81%29.89 "HgN/A
2:00 PM36 °FPartly sunny.8 mph81%29.89 "HgN/A
1:30 PM36 °FPartly sunny.13 mph81%29.89 "HgN/A
1:00 PM36 °FPartly sunny.10 mph81%29.89 "HgN/A
12:30 PM36 °FPartly sunny.6 mph81%29.92 "HgN/A
12:00 PM34 °FOvercast.10 mph81%29.92 "HgN/A
11:30 AM34 °FOvercast.6 mph81%29.92 "HgN/A
11:00 AM34 °FOvercast.8 mph87%29.92 "HgN/A
10:30 AM32 °FOvercast.6 mph93%29.95 "HgN/A
10:00 AM32 °FPartly sunny.6 mph93%29.95 "HgN/A
9:30 AM30 °FPartly sunny.3 mph93%29.95 "Hg5 mi
9:00 AM30 °FPartly sunny.3 mph93%29.95 "Hg4 mi
8:30 AM30 °FPartly sunny.3 mph93%29.95 "Hg4 mi
8:00 AM30 °FPassing clouds.3 mph93%29.95 "Hg4 mi
7:30 AM28 °FPassing clouds.3 mph100%29.95 "Hg4 mi
7:00 AM30 °FPassing clouds.3 mph93%29.92 "Hg5 mi
6:30 AM32 °FOvercast.6 mph93%29.92 "Hg6 mi
6:00 AM32 °FOvercast.6 mph93%29.92 "HgN/A
5:30 AM32 °FPassing clouds.6 mph93%29.92 "HgN/A
5:00 AM32 °FPassing clouds.6 mph87%29.92 "HgN/A
4:30 AM32 °FOvercast.6 mph87%29.92 "HgN/A
4:00 AM32 °FOvercast.6 mph87%29.92 "HgN/A
3:30 AM32 °FOvercast.6 mph87%29.95 "HgN/A
3:00 AM32 °FOvercast.6 mph87%29.95 "HgN/A
2:30 AM32 °FOvercast.6 mph87%29.95 "HgN/A
2:00 AM32 °FOvercast.3 mph87%29.95 "HgN/A
Weather by CustomWeather, © 2014

See weather overviewHow to use our weather pages